GPS BIIF-5 (PRN 30)

Last updated on Sat Dec 13 2025 00:03:17 GMT+0000 (Coordinated Universal Time)

1 39533U 14008A 25345.71206118 .00000087 00000+0 00000+0 0 9994 2 39533 53.6311 156.9665 0079189 226.4865 132.8633 2.00574377 85924
UTC large
Height (km)
Speed (km/s)
/
Latitude / Longitude
Inclination (degrees)
Orbital Period (minutes)
Azimuth
Elevation
Range (km)
Doppler Factor

Next 0 passes for location: London (51.5072 / 0.1276)

Sorry there are no passes over London.